Location: Schommer Observatory
(40.5200°N, 74.4500°W)
Time: 01:03:18
(UTC-04:00)

ISS - Pass Details

Date: 22 May 2018
Orbit: 402 x 407 km, 51.6° (Epoch: 21 May)

Event Time Altitude Azimuth Distance (km) Brightness Sun altitude
Rises 01:40:50 0° 310° (NW) 2,319 0.4 -28.1°
Reaches altitude 10° 01:43:42 10° 338° (NNW) 1,458 -0.4 -28.0°
Maximum altitude 01:45:29 14° 11° (NNE) 1,247 -0.5 -28.0°
Drops below altitude 10° 01:47:17 10° 45° (NE) 1,457 -0.3 -27.9°
Sets 01:50:09 0° 72° (ENE) 2,314 0.4 -27.7°
